Location: Ostrava
(49.8330°N, 18.2830°E)
Time: 14:00:38
(UTC+01:00)

NOAA 19 - Visible Passes

Search period start: 11 February 2016 00:00
Search period end: 21 February 2016 00:00
Orbit: 843 x 862 km, 99.0° (Epoch: 10 February)

Date Brightness Start Highest point End Pass type
(mag) Time Alt. Az. Time Alt. Az. Time Alt. Az.
11 Feb 7.8 02:28:41 10° NNE 02:29:27 14° NNE 02:29:27 14° NNE visible
11 Feb 7.1 04:09:58 10° N 04:11:30 17° NNW 04:11:30 17° NNW visible
12 Feb 7.9 02:17:25 10° NNE 02:18:05 13° NNE 02:18:05 13° NNE visible
12 Feb 7.1 03:58:28 10° N 04:00:08 18° NNW 04:00:08 18° NNW visible
13 Feb 8.0 02:06:11 10° NNE 02:06:42 12° NNE 02:06:42 12° NNE visible
13 Feb 7.1 03:47:00 10° N 03:48:45 20° N 03:48:45 20° N visible
14 Feb 8.1 01:55:01 10° NNE 01:55:20 11° NE 01:55:20 11° NE visible
14 Feb 7.1 03:35:34 10° N 03:37:22 21° N 03:37:22 21° N visible
15 Feb 8.1 01:43:52 10° NE 01:43:58 10° NE 01:43:58 10° NE visible
15 Feb 7.1 03:24:08 10° N 03:26:00 22° N 03:26:00 22° N visible
15 Feb 7.2 05:07:06 10° NNW 05:08:03 11° NW 05:08:03 11° NW visible
16 Feb 7.1 03:12:44 10° N 03:14:39 22° N 03:14:39 22° N visible
16 Feb 7.1 04:55:10 10° NNW 04:56:41 13° NW 04:56:41 13° NW visible
17 Feb 7.1 03:01:22 10° NNE 03:03:16 22° NNE 03:03:16 22° NNE visible
17 Feb 7.0 04:43:25 10° NNW 04:45:19 15° NNW 04:45:19 15° NNW visible
18 Feb 7.2 02:50:01 10° NNE 02:51:54 22° NNE 02:51:54 22° NNE visible
18 Feb 6.9 04:31:46 10° N 04:33:57 17° NNW 04:33:57 17° NNW visible
19 Feb 7.3 02:38:42 10° NNE 02:40:32 22° NNE 02:40:32 22° NNE visible
19 Feb 6.8 04:20:11 10° N 04:22:35 20° NNW 04:22:35 20° NNW visible
20 Feb 7.4 02:27:24 10° NNE 02:29:10 21° NNE 02:29:10 21° NNE visible
20 Feb 6.7 04:08:39 10° N 04:11:13 22° NNW 04:11:13 22° NNW visible
